OPKCSBEG

Guest
Details From OPKC - Karachi Jinnah Intl
To SBEG - Eduardo Gomes
Flight Number -
Tags Generated
Created
Modified
Stats Distance 7,492 nm / 13,876 km
Max Altitude 0 ft / 0 m
Waypoints 5
Social Downloads 0
Likes 0
Share VATSIM

Download

Looking for another format? Having issues loading an existing format? Contact us
Advertisement - Login to hide

Notes

Generated

Route

OPKC KAPAG DELMA R2923 SBEG

ID Type Via Altitude Latitude Longitude Leg Dist Tot Dist Heading (true) Name
O OPKC APT - 0 ft / 0 m 24.90471˚ 67.14755˚ - 0 nm - -
KAPAG FIX - 0 ft / 0 m 28.06528˚ 46.64583˚ 1116 nm 1116 nm 284° / 275° -
DELMA FIX - 0 ft / 0 m 28.51139˚ 34.53667˚ 640 nm 1757 nm 275° / 270° -
R2923 FIX - 0 ft / 0 m -3.03858˚ -60.06189˚ 5734 nm 7492 nm 270° / 242° -
O SBEG APT - 0 ft / 0 m -3.03858˚ -60.06189˚ 0 nm 7492 nm 0° / 180° -

Altitude Profile

Advertisement - Login to hide

Weather


0- 5 10 15 20 25 30 35+ Temperature / ° C

Clouds and Precipitation
Forecast for 2018-05-20 18:00 UTC. Updated an hour ago

Ground ~20,000 ft ~40,000 ft Winds

OPKC

Details ICAO OPKC (KHI)
Name Karachi Jinnah Intl
Region Pakistan
Timezone Asia/Karachi (UTC+5.0)
Stats Elevation 100 ft / 30 m (AMSL)
Location 24.906547° 67.160797°
Runways 2
Magnetic Variation 1.099° E

METAR

OPKC 201755Z 28007KT 5000 HZ NSC 32/11 Q1005 NOSIG

Decode

TAF

Not found

Departure Runways

ID Width Length Bearing (true) Bearing (mag) Surface Threshold Offset Overrun Length
07L 151 ft / 46 m 10,451 ft / 3,186 m 74.40° 73.30° Concrete 0 ft / 0 m 1,000 ft / 305 m
07R 151 ft / 46 m 11,145 ft / 3,397 m 74.22° 73.12° Concrete 0 ft / 0 m 990 ft / 302 m
25L 151 ft / 46 m 11,145 ft / 3,397 m 254.24° 253.14° Concrete 0 ft / 0 m 625 ft / 191 m
25R 151 ft / 46 m 10,451 ft / 3,186 m 254.41° 253.31° Concrete 0 ft / 0 m 1,000 ft / 305 m

SBEG

Details ICAO SBEG (MAO)
Name Eduardo Gomes
Region Brazil
Timezone America/Manaus (UTC-4.0)
Stats Elevation 264 ft / 80 m (AMSL)
Location -3.038611° -60.049723°
Runways 1
Magnetic Variation 15.812° W

METAR

SBEG 201800Z 21003KT 9999 SCT020 BKN100 23/23 Q1012

Decode

TAF

TAF SBEG 201600Z 2018/2118 09008KT 9999 SCT020 FEW025TCU TN24/2107Z TX32/2118Z PROB30 2019/2021 TS SCT020 FEW025CB BECMG 2022/2024 03003KT CAVOK BECMG 2102/2104 00000KT BECMG 2111/2113 05005KT SCT015 BECMG 2115/2117 08008KT SCT020 FEW025TCU RMK PEH

Decode

Destination Runways

ID Width Length Bearing (true) Bearing (mag) Surface Threshold Offset Overrun Length
10 148 ft / 45 m 8,867 ft / 2,703 m 90.13° 105.94° Asphalt 0 ft / 0 m 215 ft / 66 m
28 148 ft / 45 m 8,867 ft / 2,703 m 270.13° 285.94° Asphalt 0 ft / 0 m 250 ft / 76 m

Approach Navaids

Runway Type Ident Frequency Range Bearing (true) Bearing (mag) Slope Elevation
10 Localiser IEG 110.30 MHz 18 nm / 33 km 90.55° 106.37° - 275 ft / 84 m (AMSL)
10 Glidescope IEG 110.30 MHz 10 nm / 19 km 90.13° 105.94° 3.04° 275 ft / 84 m (AMSL)
10 DME IEG 110.30 MHz 18 nm / 33 km - - - 264 ft / 80 m (AMSL)